Location: Pilipovskiye Korichintsy
(49.1833°N, 27.4667°E)
Time: 23:16:18
(UTC+00:00)

Lacrosse 5 - Pass Details

Date: 28 October 2020
Orbit: 714 x 725 km, 57.0° (Epoch: 30 November)

Event Time Altitude Azimuth Distance (km) Brightness Sun altitude
Rises 15:41:28 0° 279° (W) 3,117 6.7 -8.1°
Reaches altitude 10° 15:44:02 10° 288° (WNW) 2,197 5.5 -8.5°
Maximum altitude 15:48:39 34° 354° (N) 1,162 2.9 -9.3°
Enters shadow 15:53:05 11° 59° (ENE) 2,138 3.7 -10.0°
